www.pogodaiklimat.ru

Погода и климат >> Архив погоды >> Гана >> Kete-Krachi


ПОГОДА в Kete-Krachi

  • Прогноз погоды в Kete-Krachi
  • Монитор погоды в Kete-Krachi
  • Климат города

АРХИВ ПОГОДЫ в Kete-Krachi

Время (UTC), дата Ветер
(напр.,м/с)
 
Видим.   Явления Облачность Т
(С)
Тd
(С)
f
(%)
Тe
(С)
Тes
(С)
Комфортность P
(гПа)
Po
(гПа)
Тmin
(С)
Tmax
(С)
R
(мм)
R24
(мм)
S
(см)
21 16.07 штиль 0 16 км 5/3 360 м
[Sc Ac trans Ci sp]
+26.5 +24.9 91 +38 +38 очень
душно
1015.0 1015.0
00 17.07 штиль 0 18 км 6/0
[Ac trans Ci sp]
+26.3 +24.8 91 +37 +37 очень
душно
1014.4 1014.0
03 17.07 ЮЗ 1 16 км 8/3 360 м
[Sc Ac trans Ci sp]
+25.8 +24.7 94 +37 +37 очень
душно
1013.2 1013.0
06 17.07 штиль 0 10 км гроза, ливневой дождь 9/6 360 м
[Cb cap Ac trans]
+25.1 +24.1 94 +35 +35 очень
душно
1014.5 1015.0 +24.8 2
09 17.07 ЮЗ 1 25 км гроза без осадков {дождь} 9/9 400 м
[Cb cap]
+25.5 +24.1 92 +35 +37 очень
душно
1016.6 1017.0
12 17.07 ЮЗ 2 28 км 9/0 400 м
[As op Ci fib]
+26.9 +24.9 89 +39 +51 опасность
солнечного
удара
1015.9 1016.0
18 17.07 С 1 20 км {гроза} 9/4 300 м
[Cu Sc Ac trans]
+28.6 +21.7 66 +37 +37 очень
душно
1013.5 1014.0 2
21 17.07 штиль 0 18 км зарница 8/3 360 м
[Cb cap Ac trans Ci sp]
+23.5 +22.2 92 +30 +30 очень
душно
1014.6 1015.0
00 18.07 штиль 0 18 км 9/4 360 м
[Sc Ac trans]
+23.7 +22.7 94 +31 +31 очень
душно
1015.2 1015.0
03 18.07 штиль 0 18 км 9/4 360 м
[Sc Ac trans]
+23.8 +22.7 94 +31 +31 очень
душно
1014.4 1014.0
06 18.07 штиль 0 22 км 9/5 360 м
[Sc Ac trans]
+24.0 +23.7 98 +33 +33 очень
душно
1015.2 1015.0 +22.4 2
09 18.07 ЮЗ 1 15 км 6/4 400 м
[Cu Sc Ac trans Ci sp]
+25.6 +22.7 84 +34 +40 очень
душно
1017.5 1018.0
12 18.07 25 км н/о +29.7 +24.1 72 +41 +51 опасность
перегрева
1016.0 1016.0
15 18.07 Ю 2 28 км 8/5 420 м
[Cu Sc Ac trans Ci sp]
+30.5 +24.3 70 +43 +47 опасность
перегрева
1013.9 1014.0
18 18.07 ЮВ 1 25 км 6/3 500 м
[Cb cap Ac trans Ci sp]
+29.6 +24.5 74 +42 +42 опасность
перегрева
1012.6 1013.0 +30.6
21 18.07 0 н/о +24.8 1015.5 1014.5
00 19.07 штиль 0 16 км 9/6 400 м
[Sc Ac trans]
+26.9 +25.0 89 +39 +39 очень
душно
1016.1 1016.0
03 19.07 ЮЗ 2 16 км зарница {дождь} 9/6 360 м
[Cb cap Ac trans]
+25.7 +24.8 95 +36 +36 очень
душно
1015.1 1015.0
06 19.07 ЮЗ 2 20 км {гроза, дождь} 9/6 300 м
[Sc Ac trans]
+25.3 +25.0 98 +36 +36 очень
душно
1015.6 1016.0 2
09 19.07 Ю 1 20 км гроза без осадков {дождь} 9/9 360 м
[Cb cap]
+25.0 +24.1 95 +34 +36 очень
душно
1018.3 1018.0
12 19.07 штиль 0 15 км в посл. час гроза {дождь} 9/5 360 м
[Sc Ac trans]
+25.9 +24.7 93 +37 +44 очень
душно
1017.1 1017.0 6
15 19.07 штиль 0 25 км 8/5 420 м
[Cb cap Ac trans Ci sp]
+28.4 +24.9 81 +41 +46 опасность
перегрева
1015.6 1016.0
18 19.07 ЮВ 1 20 км 8/3 500 м
[Cb cap Ac trans Ci sp]
+27.2 +25.2 89 +39 +39 очень
душно
1014.3 1014.0 +28.4 6
21 19.07 ЮЗ 2 18 км 4/0
[Ac trans]
+26.0 +24.6 92 +37 +37 очень
душно
1016.4 1016.0
03 20.07 ЮЗ 1 18 км {гроза} 9/4 360 м
[Sc Ac trans]
+25.5 +24.1 92 +35 +35 очень
душно
1015.9 1016.0
06 20.07 штиль 0 20 км {гроза, дождь} 9/9 330 м
[Sc]
+25.0 +24.8 99 +35 +35 очень
душно
1016.0 1016.0 +24.0 9
09 20.07 ЮЗ 1 25 км 8/6 400 м
[Cu Sc Ac trans]
+26.0 +24.1 89 +36 +40 очень
душно
1017.9 1018.0
12 20.07 ЮЗ 2 25 км 8/5 400 м
[Cu Sc Ac trans]
+28.6 +25.0 81 +41 +48 опасность
перегрева
1016.2 1016.0
15 20.07 ЮЗ 1 25 км гроза без осадков {дождь} 8/5 400 м
[Cb cap Ac trans Ci sp]
+29.4 +26.2 83 +45 +50 опасность
перегрева
1013.8 1014.0
18 20.07 штиль 0 10 км в посл. час гроза {дождь} 8/3 500 м
[Cb cap Ac trans Ci sp]
+27.5 +25.4 88 +40 +40 очень
душно
1013.8 1014.0 +29.4 0.6
21 20.07 штиль 0 16 км 4/0
[Ac trans Ci sp]
+27.7 +24.1 81 +39 +39 очень
душно
1014.5 1015.0
00 21.07 15 км н/о +24.5 +23.7 95 +33 +33 очень
душно
1014.7 1015.0
03 21.07 штиль 0 16 км 9/6 360 м
[Sc Ac trans]
+25.5 +24.8 96 +36 +36 очень
душно
1013.7 1014.0
12 21.07 Ю 2 25 км {гроза} 6/6 900 м
[]
+29.0 +24.8 78 +41 +51 опасность
перегрева
1014.8 1015.0
15 21.07 СЗ 1 25 км 6/5 500 м
[Cb cap Ac trans Ci sp]
+31.9 +25.4 69 +46 +52 опасность
перегрева
1013.3 1013.0
18 21.07 штиль 0 10 км {гроза, дождь} 5/3 540 м
[Cb cap Ci sp]
+29.5 +24.4 74 +41 +41 опасность
перегрева
1011.4 1011.0 +31.9 0.0
21 21.07 штиль 0 18 км 5/0
[Ac trans Ci sp]
+27.0 +25.0 89 +39 +39 очень
душно
1013.2 1013.0
00 22.07 штиль 0 18 км зарница 5/1 900 м
[Cb cap Ci sp]
+26.0 +24.6 92 +37 +37 очень
душно
1014.3 1014.0
03 22.07 штиль 0 18 км 4/0
[Ci sp]
+25.0 +24.5 97 +35 +35 очень
душно
1013.1 1013.0
06 22.07 ЮЗ 2 22 км 8/3 360 м
[Sc Ac trans Ci sp]
+25.5 +24.1 92 +35 +35 очень
душно
1013.9 1014.0 +24.5 0.0
09 22.07 ЮЗ 1 22 км 9/9 300 м
[Cb calv Ac cuf Ci ing]
+26.5 +24.5 89 +37 +39 очень
душно
1016.6 1017.0
12 22.07 ЮЗ 1 22 км 9/6 400 м
[Cu Sc Ac trans]
+28.0 +24.6 82 +40 +45 очень
душно
1015.7 1016.0
18 22.07 ЮЗ 2 20 км 9/4 400 м
[Cb cap Ac trans]
+27.3 +24.2 83 +38 +38 очень
душно
1011.0 1011.0 +29.3
21 22.07 ЮЗ 2 10 км гроза, ливневой дождь 9/6 360 м
[Cb cap Ac trans]
+26.4 +24.5 89 +37 +37 очень
душно
1014.3 1014.0
00 23.07 ЮЗ 1 10 км гроза, ливневой дождь 9/6 360 м
[Cb cap Ac As]
+24.5 +23.8 96 +33 +33 очень
душно
1015.7 1016.0 18
03 23.07 штиль 0 18 км {гроза, дождь} 9/5 360 м
[Sc Ac trans]
+24.5 +23.7 95 +33 +33 очень
душно
1014.6 1015.0
06 23.07 штиль 0 22 км {гроза, дождь} 9/6 360 м
[Sc Ac trans]
+24.2 +23.9 98 +33 +33 очень
душно
1015.2 1015.0 +22.7 18
09 23.07 ЮЗ 1 22 км 9/8 360 м
[Cu Sc Ac trans]
+25.0 +22.9 88 +33 +35 очень
душно
1017.4 1017.0
12 23.07 ЮЗ 2 24 км 9/6 400 м
[Cu Sc Ac trans]
+28.0 +24.6 82 +40 +45 очень
душно
1016.6 1017.0
15 23.07 ЮЗ 2 24 км 9/4 480 м
[Cu med, cong Ac trans]
+29.3 +24.6 76 +42 +45 опасность
перегрева
1014.9 1015.0
18 23.07 штиль 0 22 км 9/3 400 м
[Cb cap Ac trans]
+28.0 +24.5 81 +39 +39 очень
душно
1013.6 1014.0 +29.3

 

Местоположение метеостанции Kete-Krachi (Гана): широта 7.82 долгота -0.03 высота над уровнем моря 122 м.

В архиве по умолчанию представлена погода в Kete-Krachi за последнюю неделю. Архивные данные за месяц целиком и за предыдущие месяцы, начиная с января 2011 года, Вы можете получить, выбрав интересующий диапазон дат из раскрывающегося списка и нажав кнопку "Ввод!".

Внимание! Время в таблицах - всемирное. Для получения местного времени необходимо прибавить поправку, которая в Kete-Krachi равна 1 ч.

Смотрите также архив погоды в соседних городах и на ближайших метеорологических станциях:

Погода в Atakpame (Того) (130 км)
Погода в Ho (Гана) (146 км)
Погода в Abetifi (Гана) (151 км)
Погода в Yendi (Гана) (181 км)
Погода в Sokode (Того) (183 км)
Погода в Akuse (Гана) (192 км)
Погода в Koforidua (Гана) (195 км)
Погода в Tamale (Гана) (207 км)
Погода в Akatsi (Гана) (210 км)
Погода в Kumasi (Гана) (212 км)

Пояснения к столбцам:

Ветер - указаны скорость ветра в м/с - средняя за 10 мин, порывы в срок и между сроками (в фигурных скобках) и направление, откуда дует ветер: С - северный, СВ - северо-восточный, В - восточный, ЮВ - юго-восточный, Ю - южный, ЮЗ - юго-западный, З - западный, СЗ - северо-западный.
Видимость - горизонтальная дальность видимости в метрах или километрах. При видимости от 1 до 10 км при отсутствии осадков обычно наблюдается дымка, при ухудшении видимости до 1 км и менее - туман. В сухую погоду видимость может ухудшаться дымом, пылью или мглою.
Явления - указаны атмосферные явления, наблюдавшиеся в срок или в последний час перед сроком; фигурными скобками обозначены явления, наблюдавшиеся между сроками (за 1-3 часа до срока); квадратными скобками обозначены град или гололедные отложения с указанием их диаметра в мм.
Облачность - указаны через наклонную черту общая и нижняя облачность в баллах и высота нижней границы облаков в метрах; квадратными скобками обозначены формы облаков: Ci - перистые, Cs - перисто-слоистые, Cc - перисто-кучевые, Ac - высококучевые, As - высокослоистые, Sc - слоисто-кучевые, Ns - слоисто-дождевые, Cu - кучевые, Cb - кучево-дождевые. Подробнее классификацию облаков см. в Атласе облаков (PDF).
T - Температура воздуха - температура, измеренная на высоте 2 м над землей.
Td - Температура точки росы - температура, при понижении до которой содержащийся в воздухе водяной пар достигнет насыщения.
f - Относительная влажность воздуха - влажноcть воздуха, измеренная на высоте 2 м над землей.
Te - Эффективная температура - температура, которую ощущает одетый по сезону человек в тени. Характеристика душности погоды. При расчете учитывается влияние влажности воздуха и скорости ветра на теплоощущения человека.
Tes - Эффективная температура на солнце - температура, которую ощущает человек, с поправкой на солнечный нагрев. Характеристика знойности погоды. Зависит от высоты солнца над горизонтом, облачности и скорости ветра. Ночью, в пасмурную погоду, а также при ветре 12 м/с и более поправка равна нулю.
P - Атмосферное давление - приведенное к уровню моря атмосферное давление.
Po - Атмосферное давление - измеренное на уровне метеостанции атмосферное давление.
Tmin - Минимальная температура - минимум температуры воздуха на высоте 2 м над землей.
Tmax - Максимальная температура - максимум температуры воздуха на высоте 2 м над землей.
R - Количество осадков - Количество выпавших осадков за период времени, мм. При наведении курсора мыши на число - период времени, за который выпало указанное количество осадков.
R24 - Количество осадков - Количество выпавших осадков за 24 часа, мм.
S - Снежный покров - Высота снежного покрова, см. При наведении курсора мыши на число - состояние снежного покрова и степень покрытия местности в баллах.